TimeEST,TemperatureF,Dew PointF,Humidity,Sea Level PressureIn,VisibilityMPH,Wind Direction,Wind SpeedMPH,Gust SpeedMPH,PrecipitationIn,Events,Conditions,WindDirDegrees,DateUTC
12:17 AM,30.2,23.0,75,29.86,10.0,Calm,Calm,-,N/A,,Overcast,0,2012-12-11 05:17:00
12:37 AM,30.2,23.0,75,29.86,10.0,North,6.9,-,N/A,,Overcast,10,2012-12-11 05:37:00
12:57 AM,30.2,23.0,75,29.87,10.0,NNW,5.8,-,N/A,,Overcast,340,2012-12-11 05:57:00
1:17 AM,30.2,23.0,75,29.86,10.0,North,4.6,-,N/A,,Overcast,360,2012-12-11 06:17:00
1:37 AM,30.2,23.0,75,29.87,10.0,Calm,Calm,-,N/A,,Overcast,0,2012-12-11 06:37:00
1:57 AM,30.2,23.0,75,29.86,10.0,Calm,Calm,-,N/A,,Overcast,0,2012-12-11 06:57:00
2:17 AM,30.2,23.0,75,29.87,10.0,West,3.5,-,N/A,,Overcast,280,2012-12-11 07:17:00
2:37 AM,30.2,23.0,75,29.88,10.0,West,3.5,-,N/A,,Overcast,270,2012-12-11 07:37:00
2:57 AM,30.2,23.0,75,29.90,10.0,West,3.5,-,N/A,,Overcast,280,2012-12-11 07:57:00
3:17 AM,30.2,23.0,75,29.89,10.0,NW,5.8,-,N/A,,Overcast,320,2012-12-11 08:17:00
3:37 AM,28.4,23.0,80,29.90,10.0,Calm,Calm,-,N/A,,Overcast,0,2012-12-11 08:37:00
3:57 AM,28.4,23.0,80,29.90,10.0,WNW,3.5,-,N/A,,Overcast,290,2012-12-11 08:57:00
4:17 AM,28.4,23.0,80,29.90,10.0,WNW,4.6,-,N/A,,Overcast,300,2012-12-11 09:17:00
4:37 AM,28.4,23.0,80,29.91,10.0,NW,3.5,-,N/A,,Overcast,320,2012-12-11 09:37:00
4:57 AM,28.4,23.0,80,29.91,10.0,NW,4.6,-,N/A,,Overcast,310,2012-12-11 09:57:00
5:17 AM,28.4,21.2,74,29.92,10.0,NW,4.6,-,N/A,,Overcast,320,2012-12-11 10:17:00
5:37 AM,28.4,21.2,74,29.93,10.0,WNW,5.8,-,N/A,,Overcast,300,2012-12-11 10:37:00
5:57 AM,28.4,21.2,74,29.94,10.0,NW,5.8,-,N/A,,Overcast,320,2012-12-11 10:57:00
6:17 AM,28.4,21.2,74,29.94,10.0,Calm,Calm,-,N/A,,Overcast,0,2012-12-11 11:17:00
6:37 AM,28.4,21.2,74,29.94,10.0,NW,3.5,-,N/A,,Overcast,310,2012-12-11 11:37:00
6:57 AM,28.4,21.2,74,29.95,10.0,WNW,4.6,-,N/A,,Overcast,300,2012-12-11 11:57:00
7:17 AM,28.4,21.2,74,29.96,10.0,West,4.6,-,N/A,,Overcast,280,2012-12-11 12:17:00
7:37 AM,28.4,21.2,74,29.97,10.0,West,5.8,-,N/A,,Overcast,280,2012-12-11 12:37:00
7:57 AM,28.4,21.2,74,29.97,10.0,WNW,4.6,-,N/A,,Overcast,290,2012-12-11 12:57:00
8:17 AM,28.4,21.2,74,29.98,10.0,Calm,Calm,-,N/A,,Overcast,0,2012-12-11 13:17:00
8:37 AM,28.4,21.2,74,29.98,10.0,West,6.9,-,N/A,,Overcast,280,2012-12-11 13:37:00
8:57 AM,28.4,21.2,74,29.99,10.0,West,4.6,-,N/A,,Overcast,280,2012-12-11 13:57:00
9:17 AM,28.4,21.2,74,30.00,10.0,West,3.5,-,N/A,,Overcast,280,2012-12-11 14:17:00
9:37 AM,28.4,21.2,74,30.01,10.0,WNW,8.1,-,N/A,,Overcast,300,2012-12-11 14:37:00
9:57 AM,30.2,21.2,69,30.02,10.0,WNW,5.8,-,N/A,,Mostly Cloudy,290,2012-12-11 14:57:00
10:17 AM,30.2,21.2,69,30.02,10.0,WNW,5.8,-,N/A,,Scattered Clouds,290,2012-12-11 15:17:00
10:37 AM,30.2,21.2,69,30.02,10.0,WNW,6.9,-,N/A,,Clear,300,2012-12-11 15:37:00
10:57 AM,32.0,21.2,64,30.02,10.0,West,4.6,-,N/A,,Clear,280,2012-12-11 15:57:00
11:17 AM,32.0,21.2,64,30.02,10.0,West,4.6,-,N/A,,Scattered Clouds,270,2012-12-11 16:17:00
11:37 AM,32.0,21.2,64,30.02,10.0,WSW,6.9,-,N/A,,Clear,240,2012-12-11 16:37:00
11:57 AM,33.8,21.2,60,30.01,10.0,West,5.8,-,N/A,,Clear,270,2012-12-11 16:57:00
12:17 PM,33.8,21.2,60,30.01,10.0,WSW,4.6,-,N/A,,Clear,250,2012-12-11 17:17:00
12:37 PM,35.6,21.2,56,30.02,10.0,WSW,6.9,-,N/A,,Clear,250,2012-12-11 17:37:00
12:57 PM,35.6,21.2,56,30.01,10.0,Calm,Calm,-,N/A,,Scattered Clouds,0,2012-12-11 17:57:00
1:17 PM,35.6,21.2,56,30.01,10.0,SSW,5.8,-,N/A,,Scattered Clouds,210,2012-12-11 18:17:00
1:37 PM,35.6,21.2,56,30.01,10.0,SSW,5.8,-,N/A,,Scattered Clouds,210,2012-12-11 18:37:00
1:57 PM,37.4,23.0,56,30.01,10.0,SSW,6.9,-,N/A,,Scattered Clouds,200,2012-12-11 18:57:00
2:17 PM,35.6,23.0,60,30.02,10.0,South,9.2,-,N/A,,Scattered Clouds,190,2012-12-11 19:17:00
2:37 PM,35.6,23.0,60,30.02,10.0,SW,6.9,-,N/A,,Mostly Cloudy,220,2012-12-11 19:37:00
2:57 PM,35.6,24.8,65,30.02,10.0,South,6.9,-,N/A,,Overcast,190,2012-12-11 19:57:00
3:17 PM,35.6,24.8,65,30.02,10.0,SSW,9.2,-,N/A,,Overcast,210,2012-12-11 20:17:00
3:37 PM,35.6,24.8,65,30.03,10.0,SSW,9.2,-,N/A,,Overcast,210,2012-12-11 20:37:00
3:57 PM,35.6,24.8,65,30.03,10.0,SW,3.5,-,N/A,,Overcast,230,2012-12-11 20:57:00
4:17 PM,35.6,24.8,65,30.03,10.0,SSW,8.1,-,N/A,,Overcast,210,2012-12-11 21:17:00
4:37 PM,35.6,24.8,65,30.03,10.0,SSW,8.1,-,N/A,,Overcast,200,2012-12-11 21:37:00
4:57 PM,33.8,24.8,70,30.04,10.0,SSW,8.1,-,N/A,,Overcast,200,2012-12-11 21:57:00
5:17 PM,33.8,26.6,75,30.04,10.0,SSW,10.4,-,N/A,,Overcast,210,2012-12-11 22:17:00
5:37 PM,33.8,23.0,65,30.05,10.0,SSW,11.5,17.3,N/A,,Overcast,210,2012-12-11 22:37:00
5:57 PM,33.8,21.2,60,30.05,10.0,SSW,9.2,17.3,N/A,,Overcast,210,2012-12-11 22:57:00
6:17 PM,33.8,19.4,56,30.06,10.0,SW,8.1,-,N/A,,Overcast,220,2012-12-11 23:17:00
6:37 PM,33.8,19.4,56,30.06,10.0,SW,5.8,16.1,N/A,,Overcast,220,2012-12-11 23:37:00
6:57 PM,32.0,19.4,60,30.08,10.0,SW,6.9,-,N/A,,Scattered Clouds,230,2012-12-11 23:57:00
7:17 PM,32.0,19.4,60,30.07,10.0,SW,5.8,-,N/A,,Scattered Clouds,220,2012-12-12 00:17:00
7:37 PM,32.0,19.4,60,30.08,10.0,SSW,3.5,-,N/A,,Clear,210,2012-12-12 00:37:00
7:57 PM,30.2,19.4,64,30.08,10.0,SSW,4.6,-,N/A,,Clear,210,2012-12-12 00:57:00
8:17 PM,30.2,21.2,69,30.09,10.0,SSW,9.2,-,N/A,,Clear,210,2012-12-12 01:17:00
8:37 PM,32.0,23.0,69,30.09,10.0,SSW,6.9,-,N/A,,Clear,210,2012-12-12 01:37:00
8:57 PM,32.0,23.0,69,30.10,10.0,SSW,10.4,16.1,N/A,,Clear,210,2012-12-12 01:57:00
9:17 PM,30.2,21.2,69,30.10,10.0,SW,9.2,-,N/A,,Clear,220,2012-12-12 02:17:00
9:37 PM,30.2,21.2,69,30.11,10.0,SW,6.9,-,N/A,,Scattered Clouds,220,2012-12-12 02:37:00
9:57 PM,30.2,21.2,69,30.11,10.0,SSW,10.4,-,N/A,,Scattered Clouds,210,2012-12-12 02:57:00
10:17 PM,30.2,21.2,69,30.12,10.0,SSW,6.9,-,N/A,,Clear,210,2012-12-12 03:17:00
10:37 PM,30.2,23.0,75,30.11,10.0,SSW,9.2,16.1,N/A,,Clear,200,2012-12-12 03:37:00
10:57 PM,30.2,23.0,75,30.11,10.0,SSW,8.1,-,N/A,,Clear,210,2012-12-12 03:57:00
11:17 PM,30.2,23.0,75,30.12,10.0,SW,8.1,-,N/A,,Clear,220,2012-12-12 04:17:00
11:37 PM,30.2,23.0,75,30.13,10.0,SSW,8.1,-,N/A,,Clear,210,2012-12-12 04:37:00
11:57 PM,30.2,23.0,75,30.13,10.0,SSW,5.8,-,N/A,,Clear,210,2012-12-12 04:57:00